Location: Westerlo
(51.0830°N, 4.9170°E)
Time: 20:15:08
(UTC+02:00)

ISS - Pass Details

Date: 20 April 2026
Orbit: 414 x 424 km, 51.6° (Epoch: 12 May)

Event Time Altitude Azimuth Distance (km) Brightness Sun altitude
Exits shadow 05:27:57 - 188° (S) 1,777 -1.0 -10.3°
Reaches altitude 10° 05:28:58 10° 177° (S) 1,495 -1.2 -10.2°
Maximum altitude 05:30:59 15° 140° (SE) 1,227 -1.3 -9.9°
Drops below altitude 10° 05:33:00 10° 103° (ESE) 1,505 -0.2 -9.6°
Sets 05:35:45 0° 79° (E) 2,376 1.6 -9.3°
